Location: Las Navas
(40.6024°N, 4.3345°W)
Time: 01:29:15
(UTC+00:00)

Cosmos 1953 - Pass Details

Date: 03 April 2020
Orbit: 540 x 557 km, 82.5° (Epoch: 27 May)

Event Time Altitude Azimuth Distance (km) Brightness Sun altitude
Rises 19:58:22 0° 188° (S) 2,681 5.7 -14.4°
Reaches altitude 10° 20:00:30 10° 189° (S) 1,795 4.8 -14.8°
Maximum altitude 20:04:27 83° 276° (W) 551 2.3 -15.4°
Drops below altitude 10° 20:08:27 10° 6° (N) 1,817 5.2 -16.1°
Sets 20:10:38 0° 7° (N) 2,717 6.1 -16.5°
